Weather History for Buffalo, WY

Change the Weather History Date:

Monday, March 18, 2013

  Actual Average Record
Temperature  
Mean Temperature 27 °F 35 °F  
Max Temperature 39 °F 47 °F 65 °F (2007)
Min Temperature 14 °F 23 °F 4 °F (2002)
Degree Days  
Heating Degree Days 38 30  
Month to date heating degree days 522 583  
Since 1 July heating degree days 5471 5823  
Cooling Degree Days 0 0  
Month to date cooling degree days 0 0  
Year to date cooling degree days 0 0  
Moisture  
Dew Point 14 °F    
Average Humidity 64    
Maximum Humidity 92    
Minimum Humidity 35    
Precipitation  
Precipitation T in 0.03 in 0.42 in (2003)
Month to date precipitation 0.07 0.43  
Year to date precipitation 0.68 1.20  
Sea Level Pressure  
Sea Level Pressure 29.92 in    
Wind  
Wind Speed 8 mph (NNW)    
Max Wind Speed 29 mph    
Max Gust Speed 35 mph    
Visibility 10 miles    
Events Snow    
T = Trace of Precipitation, MM = Missing Value Source: NWS Daily Summary

Daily Weather History Graph

Daily Weather History Graph

Search for Another Location

Airport:

Trip Planner

Search our weather history database for the weather conditions in past years. The results will help you decide how hot, cold, wet, or windy it might be!

Date:

Astronomy

Mar. 18, 2013 Rise Set
Actual Time 7:13 AM MDT 7:17 PM MDT
Civil Twilight 6:44 AM MDT 7:46 PM MDT
Nautical Twilight 6:10 AM MDT 8:20 PM MDT
Astronomical Twilight 5:35 AM MDT 8:54 PM MDT
Moon 11:02 AM MDT (3/18) 1:31 AM MDT (3/18)
Length of Visible Light 13h 01m
Length of Day
12h 04m
Waxing Crescent, 41% of the Moon is Illuminated
Mar 18
Waxing Crescent
Mar 19
First Quarter
Mar 27
Full
Apr 2
Last Quarter
Apr 10
New

Hourly Weather History & Observations

Time (MDT) Temp. Windchill Dew Point Humidity Pressure Visibility Wind Dir Wind Speed Gust Speed Precip Events Conditions
12:26 AM 23.0 °F 13.1 °F 19.4 °F 86% 29.80 in 10.0 mi North 9.2 mph - N/A   Overcast
12:34 AM 21.2 °F 9.5 °F 19.4 °F 93% 29.81 in 10.0 mi NNW 11.5 mph - N/A   Overcast
12:41 AM 21.2 °F 9.5 °F 19.4 °F 93% 29.80 in 10.0 mi NNW 11.5 mph 20.7 mph N/A   Overcast
12:53 AM 21.0 °F 9.9 °F 19.0 °F 92% 29.89 in 9.0 mi NNW 10.4 mph - N/A   Overcast
1:44 AM 19.4 °F 6.6 °F 17.6 °F 93% 29.82 in 5.0 mi NNW 12.7 mph - 0.00 in   Overcast
1:53 AM 19.9 °F 8.6 °F 17.1 °F 89% 29.90 in 6.0 mi NNW 10.4 mph 20.7 mph 0.00 in   Overcast
2:53 AM 18.0 °F 5.4 °F 15.1 °F 88% 29.94 in 10.0 mi NNW 11.5 mph 21.9 mph N/A   Overcast
3:08 AM 17.6 °F 7.3 °F 15.8 °F 93% 29.83 in 10.0 mi NNW 8.1 mph - N/A   Overcast
3:53 AM 17.1 °F 3.6 °F 14.0 °F 88% 29.94 in 10.0 mi NNW 12.7 mph - N/A   Overcast
4:10 AM 17.6 °F 3.7 °F 12.2 °F 79% 29.83 in 10.0 mi NW 13.8 mph - N/A   Mostly Cloudy
4:53 AM 17.1 °F 5.8 °F 14.0 °F 88% 29.95 in 10.0 mi NW 9.2 mph - N/A   Overcast
5:10 AM 17.6 °F 7.3 °F 12.2 °F 79% 29.84 in 10.0 mi NW 8.1 mph - N/A   Scattered Clouds
5:53 AM 16.0 °F 8.8 °F 10.9 °F 81% 29.96 in 10.0 mi NW 4.6 mph - N/A   Clear
6:53 AM 15.1 °F 9.4 °F 10.0 °F 80% 29.98 in 10.0 mi NNW 3.5 mph - N/A   Clear
7:53 AM 16.0 °F - 10.9 °F 81% 29.98 in 10.0 mi Calm Calm - N/A   Clear
8:53 AM 19.0 °F 12.3 °F 14.0 °F 81% 30.00 in 10.0 mi South 4.6 mph - N/A   Clear
9:53 AM 21.9 °F 15.7 °F 15.1 °F 75% 30.01 in 10.0 mi SSE 4.6 mph - N/A   Mostly Cloudy
10:53 AM 28.0 °F 18.6 °F 15.1 °F 58% 29.98 in 10.0 mi SSE 10.4 mph - N/A   Overcast
11:53 AM 30.0 °F 26.5 °F 12.9 °F 49% 29.96 in 10.0 mi Variable 3.5 mph - N/A   Mostly Cloudy
12:53 PM 32.0 °F 25.6 °F 12.0 °F 44% 29.93 in 10.0 mi ESE 6.9 mph - N/A   Mostly Cloudy
1:53 PM 34.0 °F 28.8 °F 12.0 °F 40% 29.91 in 10.0 mi South 5.8 mph - N/A   Mostly Cloudy
2:53 PM 34.0 °F 25.0 °F 10.9 °F 38% 29.88 in 10.0 mi East 12.7 mph 18.4 mph N/A   Overcast
3:53 PM 35.1 °F - 10.9 °F 37% 29.90 in 10.0 mi Calm Calm - N/A   Mostly Cloudy
4:28 PM 35.6 °F 24.5 °F 5.0 °F 28% 29.80 in 10.0 mi NW 20.7 mph 26.5 mph N/A   Partly Cloudy
4:53 PM 33.1 °F 19.3 °F 10.9 °F 40% 29.92 in 10.0 mi North 28.8 mph 34.5 mph N/A   Mostly Cloudy
5:01 PM 32.0 °F 20.1 °F 10.4 °F 41% 29.83 in 9.0 mi North 19.6 mph 34.5 mph 0.00 in Snow Light Snow
5:53 PM 32.0 °F 27.5 °F 14.0 °F 48% 29.92 in 10.0 mi SSE 4.6 mph - 0.00 in   Partly Cloudy
6:53 PM 30.0 °F 25.2 °F 14.0 °F 51% 29.95 in 10.0 mi SE 4.6 mph - N/A   Partly Cloudy
7:53 PM 28.9 °F 25.2 °F 14.0 °F 54% 29.96 in 10.0 mi East 3.5 mph - N/A   Mostly Cloudy
8:53 PM 28.9 °F 19.2 °F 16.0 °F 58% 30.00 in 10.0 mi NNW 11.5 mph - N/A   Overcast
9:53 PM 27.0 °F 20.5 °F 17.1 °F 66% 29.99 in 10.0 mi NW 5.8 mph - N/A   Clear
10:53 PM 27.0 °F 13.2 °F 19.0 °F 72% 30.01 in 9.0 mi NNW 20.7 mph 26.5 mph N/A   Scattered Clouds
11:53 PM 26.1 °F 18.4 °F 19.0 °F 75% 29.98 in 10.0 mi WSW 6.9 mph - 0.00 in   Mostly Cloudy